Content
SEND FEEDBACK

Daily
Averages
Monthly
Summary
Malaysia

KUCHING, MALAYSIA


Home > Asia > Malaysia
Elevation: 89 feet     Latitude: 01 29N     Longitude: 110 20E

WEATHER
 
SELECT A DAY
Number of Records: 280,128;   Date Range: 8/9/96 - 11/22/14
 
SHARE

PRINT THIS DATA

[ ← Previous Day ]
WEATHER ALMANAC - FEBRUARY 13, 2013
[ Next Day → ]
[ °C ]   °F
Weather ElementAverageHighLow
Temperature79.7 °F91.4 °F (3:00 pm)75.2 °F (6:00 am)
Dewpoint75 °F77 °F (9:30 am)73 °F (5:00 pm)
Humidity86.1 %100 % (6:00 am)57 % (2:00 pm)
Barometer29.77 in29.83 in (12:30 am)29.68 in (3:00 pm)
Wind Speed4.6 mph16.1 mph (4:30 pm)
Weather ElementAverage
Visibility6.4 mi
Wind DirectionSSE (158.9 °)

Weather ElementTotal
Precipitation---
Cooling Degree Days18.3 (Base 65)
Growing Degree Days33.3 (Base 50)
Averaged from 55 records on February 13, 2013
WEATHER CONDITIONS BREAKOUT
WIND DIRECTION BREAKOUT
WEATHER BY HOUR - FEBRUARY 13, 2013
[ °C ]   °F
Local TimeTemperatureDewpointHumidityBarometerVisibilityWind DirectionWind SpeedGust SpeedPrecipitationEventsConditions
12:30 AM77.0 °F75.2 °F94 %29.83 in6.2 miSSW (210°)2.3 mphMostly Cloudy
1:00 AM77.0 °F75.2 °F94 %29.80 in6.2 miSouth (190°)1.2 mphMostly Cloudy
1:30 AM77.0 °F75.2 °F94 %29.80 in6.2 miSSW (210°)3.5 mphMostly Cloudy
2:00 AM76.0 °F75.0 °F96 %29.80 in9.0 miSSW (200°)2.3 mphPartly Cloudy
2:00 AM77.0 °F75.2 °F94 %29.80 in6.2 miSSW (200°)2.3 mphMostly Cloudy
2:30 AM77.0 °F75.2 °F94 %29.77 in6.2 miWSW (250°)3.5 mphMostly Cloudy
3:00 AM77.0 °F75.2 °F94 %29.77 in6.2 miWSW (250°)2.3 mphMostly Cloudy
3:30 AM77.0 °F75.2 °F94 %29.77 in6.2 miSouth (190°)3.5 mphMostly Cloudy
4:00 AM77.0 °F75.2 °F94 %29.77 in6.2 miSSE (150°)2.3 mphMostly Cloudy
4:30 AM77.0 °F75.2 °F94 %29.77 in6.2 miSSW (210°)1.2 mphMostly Cloudy
5:00 AM76.0 °F75.0 °F95 %29.78 in9.0 miSouth (180°)1.2 mphPartly Cloudy
5:00 AM77.0 °F75.2 °F94 %29.77 in6.2 miSouth (180°)1.2 mphMostly Cloudy
5:30 AM77.0 °F75.2 °F94 %29.77 in6.2 miSSW (200°)2.3 mphMostly Cloudy
6:00 AM75.2 °F75.2 °F100 %29.77 in6.2 miSSW (210°)1.2 mphMostly Cloudy
6:30 AM75.2 °F75.2 °F100 %29.77 in6.2 miSSW (200°)2.3 mphMostly Cloudy
7:00 AM75.2 °F75.2 °F100 %29.77 in6.2 miWSW (250°)1.2 mphMostly Cloudy
7:30 AM75.2 °F75.2 °F100 %29.77 in6.2 miSouth (170°)3.5 mphMostly Cloudy
8:00 AM77.0 °F75.0 °F91 %29.81 in12.0 miSouth (180°)2.3 mphPartly Cloudy
8:00 AM77.0 °F75.2 °F94 %29.80 in6.2 miSouth (180°)2.3 mphMostly Cloudy
8:30 AM78.8 °F75.2 °F89 %29.80 in6.2 miSSW (200°)2.3 mphMostly Cloudy
9:00 AM80.6 °F75.2 °F84 %29.80 in6.2 miSE (140°)3.5 mphMostly Cloudy
9:30 AM82.4 °F77.0 °F84 %29.80 in6.2 miESE (120°)3.5 mphMostly Cloudy
10:00 AM84.2 °F77.0 °F79 %29.80 in6.2 miEast (100°)3.5 mphMostly Cloudy
10:30 AM84.2 °F75.2 °F74 %29.80 in6.2 miEast (90°)6.9 mphMostly Cloudy
11:00 AM87.0 °F76.0 °F62 %29.81 in12.0 miEast (100°)6.9 mphPartly Cloudy
11:00 AM86.0 °F75.2 °F70 %29.80 in6.2 miEast (100°)6.9 mphMostly Cloudy
11:30 AM87.8 °F77.0 °F70 %29.80 in6.2 miEast (80°)4.6 mphMostly Cloudy
12:00 PM87.8 °F75.2 °F66 %29.77 in6.2 miEast (80°)5.8 mphMostly Cloudy
12:30 PM89.6 °F77.0 °F66 %29.77 in6.2 miEast (80°)8.1 mphMostly Cloudy
1:00 PM87.8 °F77.0 °F70 %29.77 in6.2 miENE (60°)11.5 mphMostly Cloudy
1:30 PM87.8 °F75.2 °F66 %29.74 in6.2 miNE (50°)6.9 mphMostly Cloudy
2:00 PM89.0 °F76.0 °F57 %29.74 in16.0 miNE (40°)6.9 mphPartly Cloudy
2:00 PM89.6 °F75.2 °F62 %29.74 in6.2 miNE (40°)6.9 mphMostly Cloudy
2:30 PM89.6 °F75.2 °F62 %29.71 in6.2 miNNE (30°)6.9 mphMostly Cloudy
3:00 PM91.4 °F75.2 °F59 %29.68 in6.2 miNE (40°)5.8 mphMostly Cloudy
3:30 PM87.8 °F75.2 °F66 %29.68 in6.2 miNNE (20°)8.1 mphMostly Cloudy
4:00 PM86.0 °F75.2 °F70 %29.68 in6.2 miNorth (10°)10.4 mphMostly Cloudy
4:30 PM80.6 °F73.4 °F79 %29.71 in2.5 miWSW (240°)16.1 mphRain-ThunderstormLight Thunderstorms and Rain
5:00 PM77.0 °F73.0 °F83 %29.74 in2.0 miWSW (250°)11.5 mphRain-ThunderstormThunderstorms and Rain
5:00 PM77.0 °F73.4 °F89 %29.74 in2.5 miWSW (250°)11.5 mphRain-ThunderstormLight Thunderstorms and Rain
5:30 PM77.0 °F73.4 °F89 %29.74 in3.7 miWest (260°)11.5 mphRainLight Rain
6:00 PM77.0 °F73.4 °F89 %29.71 in3.7 miWSW (240°)6.9 mphRainLight Rain
6:30 PM77.0 °F73.4 °F89 %29.74 in5.6 miWest (260°)4.6 mphRainLight Rain
7:00 PM75.2 °F73.4 °F94 %29.74 in6.2 miSSW (210°)3.5 mphRainLight Rain
7:30 PM75.2 °F73.4 °F94 %29.74 in6.2 miSouth (180°)2.3 mphRainLight Rain
8:00 PM76.0 °F74.0 °F93 %29.77 in9.0 miWNW (290°)2.3 mphRainLight Rain
8:00 PM75.2 °F75.2 °F100 %29.74 in6.2 miWNW (290°)2.3 mphMostly Cloudy
8:30 PM75.2 °F75.2 °F100 %29.77 in6.2 miWNW (290°)2.3 mphRainLight Rain
9:00 PM77.0 °F75.2 °F94 %29.80 in6.2 miCalmRainLight Rain
9:30 PM77.0 °F75.2 °F94 %29.80 in6.2 miESE (110°)1.2 mphRainLight Rain
10:00 PM75.2 °F75.2 °F100 %29.80 in6.2 miSE (130°)3.5 mphRainLight Rain
10:30 PM75.2 °F75.2 °F100 %29.83 in6.2 miSE (130°)3.5 mphRainLight Rain
11:00 PM76.0 °F74.0 °F92 %29.83 in5.0 miESE (120°)3.5 mphRainLight Rain
11:00 PM75.2 °F73.4 °F94 %29.83 in5.0 miESE (120°)3.5 mphRainLight Rain
11:30 PM75.2 °F73.4 °F94 %29.83 in6.2 miSouth (180°)3.5 mphRainLight Rain
Hourly data recorded from WBGG, located miles away from Kuching, Malaysia







STORIES FROM OUR PARTNERS